This is the latest recevied weather packets stored in our database for station/object EA1CUE-WX. If no packets are shown the sender has not sent any weather packets the latest 10 day(s).
| Time | Temp. | Humidity | Pressure | Rain* | Wind** | Luminosity | Snow |
|---|---|---|---|---|---|---|---|
| 1777365824 | 16.11° C | 34% | 1012.1 hPa | 0 mm | - | - | - |
| 1777365524 | 15.56° C | 30% | 1012.1 hPa | 0 mm | - | - | - |
| 1777365224 | 15.56° C | 34% | 1012.1 hPa | 0 mm | - | - | - |
| 1777364924 | 15° C | 32% | 1012.1 hPa | 0 mm | - | - | - |
| 1777364624 | 15° C | 33% | 1012.1 hPa | 0 mm | - | - | - |
| 1777364324 | 15° C | 31% | 1012.1 hPa | 0 mm | - | - | - |
| 1777364024 | 15.56° C | 32% | 1012.2 hPa | 0 mm | - | - | - |
| 1777363724 | 15.56° C | 32% | 1012.2 hPa | 0 mm | - | - | - |
| 1777363424 | 15.56° C | 32% | 1012.1 hPa | 0 mm | - | - | - |
| 1777363124 | 15.56° C | 28% | 1012.2 hPa | 0 mm | - | - | - |
| 1777362824 | 15° C | 23% | 1012.2 hPa | 0 mm | - | - | - |
| 1777362524 | 15° C | 28% | 1012.2 hPa | 0 mm | - | - | - |
| 1777362224 | 15° C | 26% | 1012.1 hPa | 0 mm | - | - | - |
| 1777361924 | 14.44° C | 26% | 1012.2 hPa | 0 mm | - | - | - |
| 1777361624 | 14.44° C | 23% | 1012.2 hPa | 0 mm | - | - | - |
| 1777361324 | 14.44° C | 22% | 1012.2 hPa | 0 mm | - | - | - |
| 1777361024 | 14.44° C | 22% | 1012.2 hPa | 0 mm | - | - | - |
| 1777360724 | 13.89° C | 14% | 1012.2 hPa | 0 mm | - | - | - |
| 1777360424 | 13.89° C | 12% | 1012.2 hPa | 0 mm | - | - | - |
| 1777360124 | 13.89° C | 1% | 1012.2 hPa | 0 mm | - | - | - |
| 1777359824 | 13.33° C | 1% | 1012.2 hPa | 0 mm | - | - | - |
| 1777359524 | 12.78° C | 1% | 1012.3 hPa | 0 mm | - | - | - |
| 1777359224 | 11.67° C | 1% | 1012.3 hPa | 0 mm | - | - | - |
| 1777358924 | 11.11° C | 1% | 1012.3 hPa | 0 mm | - | - | - |
| 1777358624 | 10.56° C | 1% | 1012.2 hPa | 0 mm | - | - | - |
* Rain latest hour (hover to see other rain measurements)
** Current wind speed in m/s (hover to see current wind gust speed)